STARLINK-11521 [DTC] (62597 NORAD) Tracking and Keplerian Element Data

This shows tracking and keplerian element data for the satellite.

Feedback or suggestion? Click here.




ElementValue
Catalog62597
NameSTARLINK-11521 [DTC]
Epoch Orbit458
Epoch Day35.16668981
Epoch Year2025
RAAN10.0825
Inclination43.0036
Eccentricity0.0001789
Argument of Perigee267.7254
Mean Anonmoly232.2835
Mean Motion15.77855121
Decay Rate-0.00022165
L11 62597U 25008L 25035.16668981 -.00022165 00000+0 -12483-3 0 9992
L22 62597 43.0036 10.0825 0001789 267.7254 232.2835 15.77855121 4585



Live tracking and technical data element details for STARLINK-11521 [DTC] (NORAD 62597). STARLINK-11521 [DTC] can be tracked NOW for your location showing map with azimuth and elevation plus other details from your city location.







IsCatalogInMostPopularTable: catalog: 62597, numindb: 179
Update: records affected: 1



GetName: 62597 STARLINK-11521 [DTC]

Hit Count: updated at: Mon, 17 Nov 2025 18:21:02 GMT